[source: ADDS]
METAR
EDVE 060950Z 16007KT 130V210 CAVOK 17/01 Q1021

TAF EDVE 060800Z 0609/0618 17007KT CAVOK EDDV 060950Z 15007KT 100V200 CAVOK 18/02 Q1020 NOSIG

TAF EDDV 060500Z 0606/0706 12007KT CAVOK BECMG 0608/0610 18009KT BECMG 0617/0620 22004KT BECMG 0701/0704 30005KT TEMPO 0704/0706 3500 -RADZ BKN007 ETHS 060920Z 19009KT 9999 17/M01 Q1021 BLU+BLU+

TAF ETHS 060720Z 0608/0617 15010KT 9999 NSW SKC ETHC 060920Z 15009KT 9999 16/00 Q1021 BLU+BLU+

TAF ETHC 060725Z 0608/0617 16010KT 9999 NSW SKC EDVK 060950Z 19005KT 120V250 CAVOK 16/00 Q1021

TAF EDVK 060800Z 0609/0618 17010KT CAVOK
TAF
TAF EDVE 060800Z 0609/0618 17007KT CAVOK

TAF EDDV 060500Z 0606/0706 12007KT CAVOK BECMG 0608/0610 18009KT BECMG 0617/0620 22004KT BECMG 0701/0704 30005KT TEMPO 0704/0706 3500 -RADZ BKN007

TAF ETHS 060720Z 0608/0617 15010KT 9999 NSW SKC

TAF ETHC 060725Z 0608/0617 16010KT 9999 NSW SKC

TAF EDVK 060800Z 0609/0618 17010KT CAVOK

SR / SS: 04:39 / 18:00 UTC (EDVE 2020-04-06)
Bei der FFG ist der Betrieb zunächst bis zum 18.04.2020 (einschließlich) eingestellt. +++ Gero steht ebenfalls als Fluglehrer zur Verfügung! Vielen Dank an Gero und viel Erfolg beim Ausbilden. +++ Ilya hat die Theorieprüfung bestanden! Herzlichen Glückwunsch und weiterhin viel Erfolg für die restliche Ausbildung! +++ Hallo Felix, herzlich Willkommen bei der FFG und viel Erfolg für deine Pilotenausbildung! +++ Jens verstärkt als neuer Fluglehrer ab sofort unser FFG-Fluglehrer-Team. Glückwunsch und viel Erfolg beim Ausbilden! +++ Wir beglückwünschen Sebastian zur bestandenen PPL-Theorie-Prüfung! Weiterhin viel Erfolg bei der Ausbildung! +++ Stefan hat die praktische Prüfung bestanden! Herzlichen Glückwunsch und Always Happy Landings! +++ Ein weiteres Mitglied hat die Prüfung zum Fluglehrer gemeistert. Glückwunsch Nico und viel Erfolg beim Ausbilden! +++ Florian Hansmann ist ab sofort als Fluglehrer für die FFG tätig! Danke für das Engagement und viel Spaß mit deinen zukünftigen Schülern! +++ Willkommen im Verein Michael und viel Erfolg für deine Ausbildung! +++ Herzlich Willkommen bei der FFG Jens!

Neues Bild in 60 Sekunden

          aerodata150     Radio38